Weather observations for the past three days for
Douglas, Converse County Airport
Metric (Imperial)
Date Time (mdt) Wind (kph) Vis. (km) Weather Sky Cond. Temperature (ºC) Relative Humidity Wind Chill (°C) Heat Index (°C) Pressure Precipitation (cm)
Air Dwpt 6 hour altimeter (cm) sea level (mb) 1 hr 3 hr 6 hr
Max. Min.
03 21:53 Calm 16.09 Fair CLR 7.8 0.6 61% 75.79 1007.6
03 20:53 Calm 16.09 Fair CLR 11.7 0 45% 75.79 1007.5
03 19:53 Calm 16.09 Fair CLR 16.1 -1.1 31% 75.77 1006.7
03 18:53 N 11 16.09 Fair CLR 18.3 -1.1 27% 75.79 1007.1
03 17:53 N 7 16.09 Fair CLR 17.8 -0.6 21.7 17.2 29% 75.84 1008.2
03 16:53 NW 19 G 39 16.09 Partly Cloudy FEW080 SCT100 18.9 -1.1 26% 75.84 1008.4
03 15:53 N 28 G 56 16.09 Mostly Cloudy BKN100 18.3 -0.6 28% 75.87 1008.7
03 14:53 NW 20 G 30 16.09 Mostly Cloudy BKN110 20.6 -3.9 19% 75.87 1008.0
03 13:53 NW 17 G 35 16.09 Fair CLR 21.1 -2.2 21% 75.95 1008.7
03 12:53 Vrbl 6 16.09 Fair CLR 18.3 -2.2 25% 76.05 1010.5
03 11:53 S 11 16.09 Fair CLR 17.8 -1.7 17.8 4.4 27% 76.12 1011.2
03 10:53 S 15 16.09 Fair CLR 16.1 0 34% 76.17 1012.2
03 09:53 S 24 G 35 16.09 Fair CLR 15 0.6 38% 76.23 1012.4
03 08:53 S 13 16.09 Fair CLR 11.7 1.1 48% 76.28 1013.7
03 07:53 Vrbl 6 16.09 Fair CLR 9.4 0.6 55% 76.3 1014.1
03 06:53 S 7 16.09 Fair CLR 6.7 1.1 68% 6 76.25 1013.1
03 05:53 E 17 16.09 Fair CLR 5.6 0 10.6 2.8 68% 3 76.2 1012.4
03 04:53 E 11 16.09 Fair CLR 4.4 -0.6 70% 2 76.2 1012.3
03 03:53 SE 6 16.09 Fair CLR 5 -1.1 65% 76.23 1012.6
03 02:53 SE 11 16.09 Fair CLR 5.6 -0.6 65% 3 76.23 1012.5
03 01:53 NW 6 16.09 Fair CLR 7.2 -1.1 56% 76.25 1012.9
03 00:53 S 6 16.09 Fair CLR 7.2 -1.1 56% 76.25 1013.1
02 23:53 Calm 16.09 Fair CLR 10 -2.2 22.8 8.9 43% 76.25 1012.5
02 22:53 SW 7 16.09 Fair CLR 10 -2.2 43% 9 76.23 1012.5
02 21:53 NE 24 16.09 Fair CLR 13.3 -2.8 33% 76.17 1012.0
02 20:53 NE 7 16.09 Fair CLR 13.3 -6.1 26% 76.12 1012.4
02 19:53 NW 13 16.09 Fair CLR 16.1 -9.4 17% 76.1 1012.5
02 18:53 W 28 16.09 Fair CLR 20.6 -12.8 9% 76.1 1012.3
02 17:53 W 30 G 39 16.09 Fair CLR 22.2 -12.2 23.9 20 9% 76.12 1012.6
02 16:53 W 33 G 46 16.09 Fair and Breezy CLR 22.8 -12.2 9% 76.15 1012.7
02 15:53 NW 33 G 50 16.09 Fair and Breezy CLR 22.8 -12.2 9% 76.2 1013.2
02 14:53 W 26 G 43 16.09 Fair CLR 22.8 -8.9 11% 76.28 1014.0
02 13:53 NW 24 G 33 16.09 Fair CLR 21.7 -8.3 13% 76.33 1014.8
02 12:53 NW 26 G 41 16.09 Fair CLR 20.6 -8.9 13% 76.38 1015.6
02 11:53 NW 28 G 46 16.09 Fair CLR 20 -7.8 20 -2.8 15% 76.43 1016.4
02 10:53 W 33 G 43 16.09 Fair and Breezy CLR 18.9 -7.2 16% 76.45 1016.6
02 09:53 W 17 G 28 16.09 Fair CLR 13.9 -0.6 37% 76.5 1017.3
02 08:53 NW 9 16.09 Fair CLR 8.3 -2.2 48% 7 76.53 1018.4
02 07:53 Calm 16.09 Fair CLR 3.3 -2.2 68% 76.53 1018.9
02 06:53 Calm 16.09 Fair CLR -0.6 -2.8 85% 76.56 1019.7
02 05:53 Calm 16.09 Fair CLR -2.8 -4.4 3.3 -2.8 89% 76.53 1019.8
02 04:53 Calm 16.09 Fair CLR -2.2 -3.3 92% 76.56 1020.1
02 03:53 W 6 16.09 Fair CLR -0.6 -3.3 82% 76.56 1019.7
02 02:53 SE 7 16.09 Fair CLR 0 -3.9 75% -2 76.56 1019.4
02 01:53 Calm 16.09 Fair CLR 1.7 -2.8 72% 76.58 1019.4
02 00:53 SE 9 16.09 Fair CLR 2.2 -2.8 70% -0 76.61 1019.8
01 23:53 E 9 16.09 Fair CLR 2.2 -2.8 16.1 2.2 70% -0 76.61 1020.2
01 22:53 E 7 16.09 Fair CLR 4.4 -2.8 60% 3 76.61 1019.8
01 21:53 NE 11 16.09 Fair CLR 8.9 -5 37% 7 76.56 1018.7
01 20:53 NE 17 16.09 Fair CLR 10 -4.4 36% 8 76.5 1018.2
01 19:53 N 15 16.09 A Few Clouds FEW100 12.8 -5.6 28% 76.43 1017.6
01 17:53 N 26 G 37 16.09 Overcast OVC110 15.6 -6.7 17.2 14.4 21% 76.38 1017.7
01 16:53 N 19 16.09 Overcast OVC110 15.6 -6.1 22% 76.38 1017.4
01 15:53 N 28 G 39 16.09 Overcast OVC100 16.1 -6.1 21% 76.4 1017.9
01 14:53 NW 26 G 43 16.09 Mostly Cloudy BKN095 16.1 -7.2 20% 76.45 1017.9
01 13:53 N 19 G 41 16.09 A Few Clouds FEW090 16.1 -7.2 20% 76.45 1018.0
01 12:53 NW 22 G 33 16.09 A Few Clouds FEW085 15 -7.2 21% 76.48 1018.3
01 11:53 N 19 16.09 Fair CLR 14.4 -6.7 15 -2.2 23% 76.5 1018.7
01 10:53 NW 24 G 41 16.09 A Few Clouds FEW070 13.3 -5.6 27% 76.53 1018.9
01 09:53 W 31 16.09 Fair CLR 11.1 -5 32% 76.53 1019.1
01 08:53 NW 20 16.09 Fair CLR 8.3 -2.8 46% 5 76.56 1019.7
01 07:53 NW 20 16.09 Fair CLR 3.9 -2.2 65% 0 76.56 1020.0
01 06:53 NW 15 16.09 Fair CLR 0 -3.3 79% -4 76.53 1020.6
01 05:53 N 15 16.09 Fair CLR -2.2 -4.4 1.7 -2.2 85% -7 76.53 1020.3
01 04:53 N 13 16.09 Fair CLR -1.1 -3.9 82% -5 76.53 1019.9
01 03:53 N 11 16.09 Fair CLR -1.7 -4.4 82% -5 76.53 1020.3
01 02:53 N 11 16.09 Fair CLR 0 -3.9 75% -3 76.56 1020.2
01 01:53 N 9 16.09 Fair CLR 0 -3.3 79% -3 76.58 1020.5
01 00:53 NW 7 16.09 Fair CLR 1.1 -3.9 70% -1 76.58 1020.8
30 23:53 NW 7 16.09 Fair CLR 1.7 -3.9 12.2 1.1 67% -0 76.56 1020.3
30 22:53 W 6 16.09 Fair CLR 2.8 -3.9 62% 76.56 1020.3
Date Time (mdt) Wind (kph) Vis. (km) Weather Sky Cond. Air Dwpt Max. Min. Relative Humidity Wind Chill (°C) Heat Index (°C) altimeter (cm) sea level (mb) 1 hr 3 hr 6 hr
6 hour
Temperature (ºC) Pressure Precipitation (cm)